Location: Melbourne
(37.8170°S, 144.9670°E)
Time: 06:27:32
(UTC+10:00)

Daily predictions for brighter satellites

Satellite Brightness Start Highest point End
(mag) Time Altitude Azimuth Time Altitude Azimuth Time Altitude Azimuth
Cosmos 1980 3.9 18:01:34 10° SSW 18:07:09 51° ESE 18:12:40 10° NE
Cosmos 972 Rocket 4.1 18:02:39 10° N 18:07:44 77° ENE 18:13:24 10° SSE
Cosmos 2219 4.1 18:02:52 10° NW 18:08:23 53° WSW 18:13:57 10° SSE
Meteor 2-19 Rocket 4.5 18:07:09 10° S 18:13:22 69° E 18:19:31 10° NNE
Cosmos 2082 3.9 18:08:10 10° N 18:13:37 51° ENE 18:19:06 10° SSE
Okean-O 3.7 18:10:19 10° S 18:14:41 50° WSW 18:19:00 10° NNW
Cosmos 2333 Rocket 2.4 18:10:35 10° SSW 18:16:25 82° WNW 18:22:10 10° NNE
Nadezhda 1 Rocket 4.4 18:11:10 10° NNE 18:17:09 43° E 18:23:12 10° SSE
Thor Agena Rocket 4.2 18:14:25 10° NE 18:19:10 34° ESE 18:23:56 10° S
Cosmos 1626 2.9 18:15:54 10° NNE 18:19:17 32° E 18:22:42 10° SSE
SMAP 3.4 18:15:27 10° SSE 18:20:00 47° E 18:24:30 10° N
COSMOS 2428 4.2 18:16:04 10° SW 18:21:30 43° WNW 18:26:52 10° N
Cosmos 1076 Rocket 3.5 18:22:35 10° N 18:26:51 62° E 18:31:09 10° SSE
ASTEX 1 3.5 18:22:35 10° N 18:27:37 87° W 18:32:43 10° S
Cosmos 2227 Rocket 2.3 18:22:13 10° NNW 18:27:55 89° WSW 18:33:41 10° SSE
CZ-4 R/B 2.1 18:24:38 10° SSE 18:28:10 31° E 18:31:41 10° NNE
Cosmos 1340 3.1 18:26:04 10° S 18:29:44 41° ESE 18:33:22 10° NNE
Cosmos 2297 Rocket 2.2 18:25:18 10° NNW 18:30:58 85° ENE 18:36:42 10° SSE
Cosmos 2219 Rocket 3.3 18:28:18 10° SSW 18:33:48 49° WNW 18:39:16 10° N
GEOS 3 Rocket 3.5 18:29:07 10° NE 18:34:12 84° SE 18:39:18 10° SSW
Cosmos 2237 Rocket 2.2 18:29:08 10° SSW 18:34:52 80° ESE 18:40:31 10° NNE
Cosmos 1703 4.2 18:31:42 10° NNE 18:35:04 27° E 18:38:28 10° SSE
CSL-04 Debris 4.3 18:30:48 10° SSE 18:36:11 52° E 18:41:28 10° N
Cosmos 1408 Rocket 4.2 18:32:48 10° NNE 18:36:46 33° E 18:40:50 10° SSE
CORIOLIS 4.3 18:32:58 10° SSE 18:38:26 58° ENE 18:43:48 10° N
PSLV R/B 3.7 18:37:39 10° W 18:40:47 45° S 18:42:46 19° ESE
SL-14 R/B 4.3 18:39:24 10° NNW 18:43:09 49° W 18:47:00 10° S
Cosmos 2151 4.2 18:40:14 10° NE 18:43:25 20° E 18:46:37 10° SE
Cosmos 2084 3.8 18:39:26 10° NW 18:43:47 72° SW 18:48:28 10° SSE
YAOGAN 1 3.1 18:41:12 10° SSE 18:45:16 36° E 18:49:17 10° NNE
COSMOS 2455 3.0 18:39:35 10° N 18:45:21 50° ENE 18:51:10 10° SE
ALOS 2.6 18:44:01 10° SSE 18:48:32 42° E 18:52:59 10° N
Cosmos 2154 Rocket 4.1 18:45:21 10° S 18:51:39 55° E 18:57:51 10° NNE
Cosmos 2184 Rocket 4.2 18:48:58 10° S 18:55:22 78° W 19:01:36 10° N
Cosmos 2056 Rocket 3.9 18:51:16 10° S 18:56:21 42° ESE 19:01:26 10° NE
Cosmos 2344 4.4 18:51:28 10° SSW 19:04:20 88° WNW 19:13:32 10° NNE
CSL-04 Rocket 3.8 19:01:02 10° S 19:06:24 77° WSW 19:11:43 10° NNW
SL-6 R/B(2) 4.4 19:03:57 10° SSW 19:08:01 57° ESE 19:24:00 10° NE
Gbstr 26 Del rocket 4.0 19:04:45 10° SW 19:10:10 53° SE 19:13:26 28° E
Cosmos 1151 Rocket 4.3 19:07:42 10° SSE 19:10:09 24° SE 19:10:09 24° SE
Meteor 2-21 4.4 19:05:50 10° S 19:11:59 85° E 19:18:05 10° N
Cosmos 1766 Rocket 3.8 19:08:53 10° NNW 19:13:18 74° W 19:17:51 10° S
Cosmos 1624 Rocket 4.0 19:08:29 10° SSW 19:13:48 64° ESE 19:19:02 10° NNE
Cosmos 2341 Rocket 4.1 19:07:33 10° S 19:13:53 55° E 19:20:09 10° NNE
Cosmos 962 Rocket 4.4 19:12:01 10° S 19:18:13 61° E 19:24:18 10° NNE
Ariane Rocket 3.2 19:13:04 10° S 19:18:14 74° WSW 19:23:19 10° NNW
Delta 2 Rocket 3.4 19:16:30 10° W 19:20:15 63° N 19:21:09 48° NE
SL-16 R/B 2.1 19:18:41 10° SSW 19:24:28 83° ESE 19:29:57 11° NNE
Cosmos 1295 Rocket 4.4 19:20:43 10° S 19:27:01 68° E 19:33:19 10° NNE
Cosmos 1455 2.1 19:27:37 10° S 19:31:28 88° W 19:32:45 40° N
Cosmos 2227 4.3 19:26:02 10° N 19:31:34 50° ENE 19:32:51 42° ESE
SL-8 Rocket 4.0 19:35:27 10° S 19:41:45 59° E 19:44:23 35° NE
Cosmos 1515 Rocket 4.0 19:37:44 10° S 19:41:07 49° SSE 19:41:07 49° SSE
Cosmos 2228 Rocket 3.3 19:39:14 10° S 19:42:56 55° SSE 19:42:56 55° SSE
CZ-4C R/B 2.6 19:42:02 10° SW 19:47:25 53° WNW 19:50:08 25° N
Cosmos 2058 3.5 19:43:51 10° NNW 19:48:00 57° W 19:52:12 10° S
FENGYUN 3A 4.3 19:43:01 10° S 19:48:24 56° WSW 19:53:41 10° NNW
MOS 1 4.2 19:43:18 10° SSE 19:49:07 82° ENE 19:54:51 10° NNW
Cosmos 1603 4.4 19:45:38 10° S 19:49:55 39° SSE 19:49:55 39° SSE
Atlas Centaur 2 3.7 19:48:36 10° NNW 19:49:45 15° N 19:49:45 15° N
Cosmos 2181 Rocket 4.2 19:52:20 10° NNW 19:58:41 72° W 20:05:02 10° S
CZ-4 R/B 4.2 20:00:23 10° SSW 20:02:57 17° WSW 20:05:30 10° WNW
Cosmos 2285 Rocket 4.0 20:01:04 10° NNW 20:07:22 81° WSW 20:11:16 25° SSE
